Regional Weather Roundup
Issued by NWS

Home | Current Version | Previous Version | Text Only | Print | Product List | Glossary On
Versions: 1 2 3 4 5 6 7 8 9 10 11 12 13 14 15 16 17 18 19 20 21 22 23 24 25 26 27 28 29 30 31 32 33 34 35 36 37 38 39 40 41 42 43 44 45 46 47 48 49 50
000
ASUS46 KLOX 281112
RWRCA

SOUTHERN CALIFORNIA WEATHER ROUNDUP
NATIONAL WEATHER SERVICE OXNARD CALIFORNIA
400 AM PDT THU AUG 28 2014

NOTE: "FAIR" INDICATES FEW OR NO CLOUDS BELOW 12,000 FEET WITH NO
SIGNIFICANT WEATHER AND/OR OBSTRUCTIONS TO VISIBILITY.

  -  STATIONS PRECEEDED BY AN ASTERISK (*) ARE NOT NWS OR FAA
     STATIONS AND ARE NOT SUBJECT TO NWS AND FAA QUALITY CONTROL.

CAZ041-042-087-281200-
LA AND ORANGE COUNTY COASTAL AREAS


CITY           SKY/WX    TMP DP  RH WIND       PRES   REMARKS
L.A. DOWNTOWN  CLEAR     70  56  61 CALM      29.98F
L.A. AIRPORT   CLEAR     71  54  54 CALM      29.99F
LONG BEACH     CLEAR     71  56  58 CALM      29.98F

CITY           SKY/WX    TMP DP  RH WIND       PRES   REMARKS
AVALON           N/A    N/A N/A N/A MISG        N/A
FULLERTON      CLEAR     71  57  61 CALM      29.98F
*GETTY CENTER    N/A     77  43  29 SW1         N/A
HAWTHORNE      CLEAR     71  56  58 CALM      29.99F
*LEO CARRILLO    N/A     67  52  58 CALM        N/A
*LOS ALAMITOS  FAIR      68  57  69 CALM      29.98F
*REDONDO BEACH   N/A     69  63  80 CALM      29.98F
SANTA ANA      CLEAR     76  56  49 SW3       29.98F
STA MONICA APT CLEAR     71  57  61 CALM      29.99F
*UCLA            N/A     70  46  43 CALM      29.97S

$$

CAZ547-548-048-281200-
LA COUNTY VALLEYS AND INLAND EMPIRE


CITY           SKY/WX    TMP DP  RH WIND       PRES   REMARKS
BURBANK        CLEAR     72  46  39 W3        30.00F
VAN NUYS       CLEAR     71  47  42 CALM      30.01F

CITY           SKY/WX    TMP DP  RH WIND       PRES   REMARKS
CORONA AIRPORT SUNNY     60  53  77 CALM      30.01F
*CHATSWORTH      N/A     69  51  53 CALM      29.96F
CHINO            N/A    N/A N/A N/A MISG      30.02F
*CLAREMONT       N/A     68  46  45 CALM        N/A
MARCH AFB      CLEAR     65  49  56 CALM      30.05F
*NORTHRIDGE      N/A     68  48  49 CALM        N/A
ONTARIO        CLEAR     73  51  46 CALM      30.02F
*PASADENA        N/A     73  52  46 CALM        N/A
RIVERSIDE      CLEAR     70  54  56 CALM      30.02S
SAN BERNARDINO NOT AVBL
*SAN RAFAEL HI   N/A     74  47  38 SW3         N/A
*SAUGUS          N/A     68  48  48 CALM        N/A
*WHITEMAN AP   NOT AVBL
*WOODLAND HILL   N/A     66  43  42 SE1         N/A

$$

CAZ054-055-281200-
LA AND SAN BERNARDINO COUNTY MOUNTAINS


CITY           SKY/WX    TMP DP  RH WIND       PRES   REMARKS
*ACTON           N/A     62  46  55 N7          N/A
*BIG BEAR AIRP SUNNY     45  36  70 CALM      30.38S
*BIG PINES       N/A     60  36  40 CALM        N/A
MT WILSON NWS    N/A    N/A N/A N/A MISG        N/A
SANDBERG       CLEAR     72  37  28 N17       30.23F

$$

CAZ028-029-059-060-099-281200-
ANTELOPE VALLEY AND SURROUNDING AREAS


CITY           SKY/WX    TMP DP  RH WIND       PRES   REMARKS
LANCASTER      CLEAR     67  41  38 CALM      30.08F
PALMDALE       CLEAR     71  43  36 SW7       30.09F

CITY           SKY/WX    TMP DP  RH WIND       PRES   REMARKS
29 PALMS       CLEAR     79  44  28 W12       30.09F
BARSTOW/DAGGET CLEAR     74  43  32 W12       30.04F
BISHOP         CLEAR     57  31  37 N8        30.18S
CHINA LAKE     CLEAR     67  28  23 S6        30.03F
EDWARDS AFB    CLEAR     65  41  41 SW6       30.06F
MOJAVE         FAIR      75  37  25 W10       30.09S
NEEDLES        CLEAR     81  43  26 NW7       29.92S
VICTORVILLE    CLEAR     70  45  40 SE6       30.12S

$$

CAZ039-040-281200-
VENTURA AND SANTA BARBARA COUNTY COAST


CITY           SKY/WX    TMP DP  RH WIND       PRES   REMARKS
CAMARILLO      CLEAR     67  53  61 CALM      29.98F
NWS OXNARD       N/A     65  54  68 CALM      29.98F
OXNARD AIRPORT CLEAR     64  59  83 CALM      29.99F
*POINT MUGU    CLEAR     64  56  75 CALM      29.99F
SBA APT/GOLETA CLEAR     64  58  80 NE3       29.98F
*SANTA BARBARA   N/A     67  60  77 CALM      30.05F
*VENTURA         N/A     64  50  60 N5        30.02F

$$

CAZ044-045-281200-
VENTURA COUNTY VALLEYS


CITY           SKY/WX    TMP DP  RH WIND       PRES   REMARKS
*SIMI VALLEY     N/A     64  48  57 CALM      29.95F
*OJAI            N/A     58  49  72 CALM      29.94S
*FILLMORE        N/A     59  52  78 CALM      29.90F

$$

CAZ053-281200-
VENTURA COUNTY MOUNTAINS


CITY           SKY/WX    TMP DP  RH WIND       PRES   REMARKS
*LOCKWOOD VLY    N/A     46  36  66 MISG        N/A
*ROSE VALLEY     N/A     50  39  66 MISG        N/A

$$

CAZ034-035-036-281200-
CENTRAL COAST AND SANTA YNEZ VALLEY


CITY           SKY/WX    TMP DP  RH WIND       PRES   REMARKS
SAN LUIS OBISP MOCLDY    59  57  94 NW3       30.04F
SANTA MARIA    CLOUDY    64  59  83 CALM      30.04F

CITY           SKY/WX    TMP DP  RH WIND       PRES   REMARKS
*CAL POLY SLO    N/A     59  59 100 NE5         N/A
*LOMPOC        CLOUDY    61  55  82 CALM      30.04F
*PISMO BEACH     N/A     60  58  92 CALM      30.04F
*SANTA YNEZ    FAIR      57  54  88 CALM      30.04F

$$

CAZ037-038-051-281200-
SAN LUIS OBISPO COUNTY INTERIOR AND CUYAMA VALLEY


CITY           SKY/WX    TMP DP  RH WIND       PRES   REMARKS
*CUYAMA          N/A     62  45  54 E2        29.99S
PASO ROBLES    CLEAR     54  46  74 CALM      30.06F

$$

CAZ032-033-061-281200-
SOUTHERN DESERTS


CITY           SKY/WX    TMP DP  RH WIND       PRES   REMARKS
BLYTHE         CLEAR     82  56  40 N8        29.87S
IMPERIAL       CLEAR     84  52  33 NW7       29.86S
PALM SPRINGS   CLEAR     84  53  34 E5        29.91F
THERMAL        CLEAR     89  50  26 NW9       29.84F

$$

ELSEWHERE ACROSS THE WESTERN UNITED STATES AND MEXICO


CITY           SKY/WX    TMP DP  RH WIND       PRES   REMARKS
DENVER, CO     PTCLDY    54  50  86 S13       30.13F
GRAND CANYON,    N/A    N/A N/A N/A MISG        N/A
HONOLULU, HI   MOCLDY    77  66  69 CALM      29.91F
KAHULUI, MAUI  CLEAR     72  63  73 CALM      29.91F
LAKE TAHOE, CA CLEAR     48  41  76 CALM      30.34F
LAS VEGAS, NV  CLEAR     79  38  22 S5        29.99S
MAMMOTH LAKES, FAIR      48  28  46 NW3       30.40S
MEXICO CITY, M CLEAR     59  46  63 NE6       30.32F
PHOENIX, AZ    PTCLDY    88  62  41 CALM      29.91R
PORTLAND, OR   CLEAR     63  56  78 N3        30.08R
RENO, NV       CLEAR     63  44  50 S3        30.21S
SALT LAKE CITY PTCLDY    60  53  77 SE7       30.20S
SAN DIEGO, CA  CLEAR     73  61  65 CALM      30.00S
SAN FRANCISCO, PTCLDY    59  58  96 W12       30.06S
SAN JOSE, CA   CLEAR     61  58  90 CALM      30.05S
SEATTLE, WA    CLEAR     59  54  83 SW5       30.08R
TIJUANA, MEX   CLEAR     70  48  46 CALM      30.02F

$$

STATION/POSITION TIME  TEMP    WIND        PRES    VSBY  WAVE
                       AIR SEA DIR/SP/G                  HT/PER
                 (UTC) (F)     (DEG/KT/KT) (MB)    (MI)  (FT/S)
POINT ARGUELLO B NOT AVBL
WEST SANTA BARBA 1100   62 62  310/ 17/ 21 1015.1F         6/13
POINT CONCEPTION NOT AVBL
EAST SANTA BARBA 1100   66 67  250/  8/ 10 1015.4F
SANTA MONICA BAY 1100   69 71  290/  6/  8 1015.4F         5/12


USA.gov is the U.S. government's official web portal to all federal, state and local government web resources and services.